When you browse on this site, cookies collect data to enhance your experience and personalize the content and advertising you see.
Visit our Privacy Policy to learn more. By continuing to use the site, you agree to this use of cookies and data.
  • In Lithuania
  • List of Countries
  • For 7 days
  • Water Temperature
  • Weather Map
  • Weather Widgets
  • user-avatar
    Login

    Hourly Weather Igls

    Today, 20 September, Friday

    Time Temperature Precipitation Wind Pressure Humidity
    00:00 +5°C° 0 mm 0 mps 690 mmHg 88%
    01:00 +5°C° 0 mm 0 mps 690 mmHg 87%
    02:00 +5°C° 0 mm 0 mps 690 mmHg 85%
    03:00 +5°C° 0 mm 0 mps 689 mmHg 82%
    04:00 +5°C° 0 mm 0 mps 689 mmHg 80%
    05:00 +6°C° 0 mm 0 mps 689 mmHg 75%
    06:00 +7°C° 0 mm 0 mps 690 mmHg 71%
    07:00 +8°C° 0 mm 0 mps 690 mmHg 67%
    08:00 +12°C° 0 mm 1 mps 690 mmHg 57%
    09:00 +15°C° 0 mm 1 mps 691 mmHg 46%
    10:00 +19°C° 0 mm 1 mps 691 mmHg 36%
    11:00 +20°C° 0 mm 1 mps 691 mmHg 34%
    12:00 +20°C° 0 mm 1 mps 691 mmHg 33%
    13:00 +20°C° 0 mm 2 mps 691 mmHg 32%
    14:00 +20°C° 0 mm 2 mps 690 mmHg 36%
    15:00 +19°C° 0 mm 2 mps 690 mmHg 40%
    16:00 +19°C° 0 mm 2 mps 690 mmHg 44%
    17:00 +16°C° 0 mm 1 mps 689 mmHg 56%
    18:00 +13°C° 0 mm 1 mps 689 mmHg 68%
    19:00 +9°C° 0 mm 0 mps 688 mmHg 81%
    20:00 +10°C° 0 mm 1 mps 688 mmHg 80%
    21:00 +10°C° 0 mm 1 mps 689 mmHg 79%
    22:00 +10°C° 0 mm 1 mps 689 mmHg 78%
    23:00 +10°C° 0 mm 1 mps 689 mmHg 78%

    Tomorrow, 21 September, Saturday

    Time Temperature Precipitation Wind Pressure Humidity
    00:00 +10°C° 0 mm 1 mps 688 mmHg 79%
    01:00 +10°C° 0 mm 1 mps 688 mmHg 79%
    02:00 +10°C° 0 mm 1 mps 688 mmHg 79%
    03:00 +9°C° 0 mm 2 mps 688 mmHg 79%
    04:00 +9°C° 0 mm 2 mps 688 mmHg 79%
    05:00 +10°C° 0 mm 2 mps 688 mmHg 78%
    06:00 +10°C° 0 mm 2 mps 688 mmHg 77%
    07:00 +12°C° 0 mm 2 mps 688 mmHg 76%
    08:00 +15°C° 0 mm 1 mps 688 mmHg 66%
    09:00 +19°C° 0 mm 1 mps 689 mmHg 57%
    10:00 +22°C° 0 mm 1 mps 689 mmHg 47%
    11:00 +23°C° 0 mm 1 mps 689 mmHg 45%
    12:00 +24°C° 0 mm 1 mps 689 mmHg 43%
    13:00 +25°C° 0 mm 1 mps 688 mmHg 41%
    14:00 +24°C° 0 mm 2 mps 688 mmHg 43%
    15:00 +24°C° 0 mm 2 mps 688 mmHg 46%
    16:00 +23°C° 0 mm 2 mps 687 mmHg 49%
    17:00 +19°C° 0 mm 2 mps 687 mmHg 59%
    18:00 +17°C° 0 mm 2 mps 686 mmHg 69%
    19:00 +14°C° 0 mm 2 mps 686 mmHg 80%
    20:00 +12°C° 0 mm 3 mps 686 mmHg 80%
    21:00 +12°C° 0 mm 3 mps 685 mmHg 81%
    22:00 +11°C° 0 mm 3 mps 685 mmHg 81%
    23:00 +11°C° 0 mm 3 mps 685 mmHg 82%

    Day after tomorrow, 22 September, Sunday

    Time Temperature Precipitation Wind Pressure Humidity
    00:00 +11°C° 0 mm 3 mps 685 mmHg 83%
    01:00 +11°C° 0 mm 3 mps 685 mmHg 83%
    02:00 +11°C° 0 mm 3 mps 684 mmHg 83%
    03:00 +10°C° 0 mm 3 mps 684 mmHg 82%
    04:00 +10°C° 0 mm 3 mps 684 mmHg 81%
    05:00 +11°C° 0 mm 3 mps 684 mmHg 80%
    06:00 +11°C° 0 mm 3 mps 684 mmHg 79%
    07:00 +13°C° 0 mm 2 mps 684 mmHg 77%
    08:00 +15°C° 0 mm 2 mps 684 mmHg 71%
    09:00 +17°C° 0 mm 2 mps 684 mmHg 65%
    10:00 +19°C° 0 mm 2 mps 685 mmHg 59%
    11:00 +21°C° 0 mm 2 mps 684 mmHg 57%
    12:00 +23°C° 0 mm 2 mps 684 mmHg 56%
    13:00 +24°C° 0 mm 2 mps 684 mmHg 54%
    14:00 +23°C° 0 mm 2 mps 684 mmHg 57%
    15:00 +21°C° 0 mm 2 mps 683 mmHg 60%
    16:00 +21°C° 0 mm 2 mps 683 mmHg 62%
    17:00 +19°C° 0 mm 2 mps 682 mmHg 70%
    18:00 +17°C° 0 mm 2 mps 682 mmHg 78%
    19:00 +14°C° 0 mm 3 mps 681 mmHg 86%
    20:00 +14°C° 0 mm 3 mps 681 mmHg 87%
    21:00 +13°C° 0 mm 3 mps 681 mmHg 88%
    22:00 +13°C° 0 mm 3 mps 681 mmHg 89%
    23:00 +13°C° 0 mm 3 mps 681 mmHg 88%

    23 September, Monday

    Time Temperature Precipitation Wind Pressure Humidity
    00:00 +13°C° 0 mm 3 mps 680 mmHg 87%
    01:00 +13°C° 0 mm 3 mps 680 mmHg 87%
    02:00 +14°C° 0.2 mm 2 mps 680 mmHg 88%
    03:00 +15°C° 0.2 mm 2 mps 680 mmHg 89%
    04:00 +15°C° 0.2 mm 1 mps 680 mmHg 90%
    05:00 +14°C° 0.2 mm 1 mps 680 mmHg 93%
    06:00 +14°C° 0.2 mm 1 mps 680 mmHg 95%
    07:00 +14°C° 0.2 mm 1 mps 680 mmHg 97%
    08:00 +14°C° 2.3 mm 2 mps 681 mmHg 97%
    09:00 +13°C° 2.3 mm 2 mps 681 mmHg 98%
    10:00 +13°C° 2.3 mm 2 mps 681 mmHg 98%
    11:00 +12°C° 3.6 mm 2 mps 681 mmHg 97%
    12:00 +10°C° 3.6 mm 2 mps 681 mmHg 97%
    13:00 +10°C° 3.6 mm 2 mps 681 mmHg 97%
    14:00 +11°C° 2.5 mm 1 mps 681 mmHg 97%
    15:00 +10°C° 2.5 mm 1 mps 681 mmHg 97%
    16:00 +10°C° 2.5 mm 1 mps 681 mmHg 97%
    17:00 +10°C° 1.2 mm 1 mps 681 mmHg 97%
    18:00 +9°C° 1.2 mm 2 mps 681 mmHg 97%
    19:00 +9°C° 1.2 mm 2 mps 682 mmHg 98%
    20:00 +9°C° 0.9 mm 2 mps 682 mmHg 98%
    21:00 +9°C° 0.9 mm 2 mps 682 mmHg 98%
    22:00 +9°C° 0.9 mm 2 mps 683 mmHg 98%
    23:00 +10°C° 0.7 mm 1 mps 683 mmHg 98%

    24 September, Tuesday

    Time Temperature Precipitation Wind Pressure Humidity
    00:00 +10°C° 0.7 mm 1 mps 683 mmHg 98%
    01:00 +10°C° 0.7 mm 1 mps 684 mmHg 98%
    02:00 +10°C° 0.3 mm 1 mps 684 mmHg 98%
    03:00 +10°C° 0.3 mm 1 mps 684 mmHg 98%
    04:00 +11°C° 0.3 mm 1 mps 684 mmHg 98%
    05:00 +11°C° 0.1 mm 1 mps 684 mmHg 98%
    06:00 +11°C° 0.1 mm 1 mps 684 mmHg 98%
    07:00 +11°C° 0.1 mm 1 mps 684 mmHg 97%
    08:00 +12°C° 0 mm 1 mps 684 mmHg 94%
    09:00 +13°C° 0 mm 1 mps 685 mmHg 91%
    10:00 +14°C° 0 mm 1 mps 685 mmHg 89%
    11:00 +15°C° 0 mm 1 mps 685 mmHg 83%
    12:00 +15°C° 0 mm 0 mps 685 mmHg 77%
    13:00 +16°C° 0 mm 0 mps 685 mmHg 71%
    14:00 +16°C° 0 mm 0 mps 684 mmHg 72%
    15:00 +15°C° 0 mm 0 mps 684 mmHg 72%
    16:00 +15°C° 0 mm 0 mps 684 mmHg 73%
    17:00 +15°C° 0 mm 1 mps 684 mmHg 78%
    18:00 +13°C° 0 mm 1 mps 683 mmHg 84%
    19:00 +11°C° 0 mm 1 mps 683 mmHg 90%
    20:00 +11°C° 0 mm 1 mps 683 mmHg 87%
    21:00 +11°C° 0 mm 1 mps 683 mmHg 85%
    22:00 +11°C° 0 mm 1 mps 683 mmHg 83%
    23:00 +12°C° 0 mm 1 mps 683 mmHg 79%

    25 September, Wednesday

    Time Temperature Precipitation Wind Pressure Humidity
    00:00 +13°C° 0 mm 1 mps 683 mmHg 75%
    01:00 +14°C° 0 mm 1 mps 683 mmHg 71%
    02:00 +13°C° 0.3 mm 1 mps 683 mmHg 77%
    03:00 +13°C° 0.3 mm 1 mps 682 mmHg 82%
    04:00 +13°C° 0.3 mm 1 mps 682 mmHg 87%
    05:00 +13°C° 0.3 mm 1 mps 682 mmHg 88%
    06:00 +13°C° 0.3 mm 1 mps 682 mmHg 88%
    07:00 +13°C° 0.3 mm 1 mps 682 mmHg 89%
    08:00 +15°C° 0.1 mm 1 mps 682 mmHg 85%
    09:00 +16°C° 0.1 mm 1 mps 682 mmHg 80%
    10:00 +19°C° 0.1 mm 1 mps 682 mmHg 76%
    11:00 +20°C° 0 mm 1 mps 682 mmHg 72%
    12:00 +21°C° 0 mm 1 mps 682 mmHg 67%
    13:00 +21°C° 0 mm 2 mps 682 mmHg 63%
    14:00 +19°C° 0.2 mm 2 mps 682 mmHg 71%
    15:00 +18°C° 0.2 mm 2 mps 681 mmHg 80%
    16:00 +16°C° 0.2 mm 2 mps 681 mmHg 89%
    17:00 +15°C° 0.6 mm 1 mps 681 mmHg 91%
    18:00 +14°C° 0.6 mm 1 mps 681 mmHg 94%
    19:00 +13°C° 0.6 mm 0 mps 681 mmHg 96%
    20:00 +12°C° 0.1 mm 0 mps 681 mmHg 96%
    21:00 +12°C° 0.1 mm 0 mps 681 mmHg 96%
    22:00 +12°C° 0.1 mm 0 mps 681 mmHg 96%
    23:00 +13°C° 1.8 mm 1 mps 681 mmHg 97%
    Show more